Location: Unspecified
(0.0000°N, 0.0000°E)
Time: 05:46:52
(UTC+00:00)

Vanguard 2 Rocket - Pass Details

Date: 12 October 2022
Orbit: 555 x 3321 km, 32.9° (Epoch: 06 December)

Event Time Altitude Azimuth Distance (km) Brightness Sun altitude
Rises 17:41:49 0° 251° (WSW) 6,206 13.4 1.1°
Reaches altitude 10° 17:45:39 10° 255° (WSW) 5,487 13.1 0.2°
Maximum altitude 18:02:53 52° 327° (NNW) 3,807 10.3 -4.1°
Drops below altitude 10° 18:21:56 10° 39° (NE) 5,931 10.6 -8.8°
Sets 18:26:22 0° 45° (NE) 6,710 10.8 -9.9°
